sat.trackr.live / text

‹ back to catalog

STARLINK-35440

NORAD 66345 · 2025-253AC

PAYLOAD ACTIVE UNKNOWN

§ Identity

Operator
Country
US
Launch date
2025-11-06
Launch site
AFETR
Launch vehicle
Mass (kg)
RCS (m²)

Purposes: comms

External: N2YO · Heavens-Above · Gunter

§ Orbital elements

Epoch: 2026-05-24T23:57:12.837600Z

Period
94.27 min
Inclination
43.0001°
Eccentricity
0.0001230
Mean motion
15.27590210 rev/d
Perigee alt
482.2 km
Apogee alt
483.9 km
Semi-major
6,861.2 km
B*
6.1869e-4
RAAN
141.6560°
Arg perigee
263.4123°
Mean anomaly
96.6588°
Rev number
3,191

§ Raw data

STARLINK-354401 66345U 25253AC  26144.99806525  .00016807  00000+0  61869-3 0  99962 66345  43.0001 141.6560 0001230 263.4123  96.6588 15.27590210 31912

JSON: /api/v1/satellites/66345 · /tle

For live sub-satellite position, see the globe view (requires WebGL).

§ Visibility from observer

Set your observer location to see the next 7 days of passes ≥ 10°. The values pass through the URL so the page stays shareable.

No JS? Fill the form by hand. The geolocation button needs JavaScript.